When you browse on this site, cookies collect data to enhance your experience and personalize the content and advertising you see.
Visit our Privacy Policy to learn more. By continuing to use the site, you agree to this use of cookies and data.
  • In Portugal
  • List of Countries
  • For 7 days
  • Water Temperature
  • Satellite Maps
  • Weather Map
  • Weather Widgets
  • user-avatar
    Login

    Hourly Weather Babarygino

    Today, 17 November, Saturday

    Time Temperature Precipitation Wind Pressure Humidity
    00:00 -4°C° 0 mm 3 mps 773 mmHg 93%
    01:00 -4°C° 0 mm 3 mps 773 mmHg 93%
    02:00 -4°C° 0 mm 3 mps 773 mmHg 93%
    03:00 -4°C° 0 mm 3 mps 772 mmHg 93%
    04:00 -4°C° 0 mm 3 mps 772 mmHg 93%
    05:00 -4°C° 0 mm 3 mps 772 mmHg 93%
    06:00 -2°C° 0 mm 3 mps 771 mmHg 93%
    07:00 -2°C° 0 mm 3 mps 771 mmHg 93%
    08:00 -2°C° 0 mm 3 mps 770 mmHg 93%
    09:00 -1°C° 0 mm 3 mps 770 mmHg 91%
    10:00 -2°C° 0 mm 4 mps 770 mmHg 89%
    11:00 -1°C° 0 mm 4 mps 769 mmHg 87%
    12:00 -1°C° 0.2 mm 4 mps 768 mmHg 88%
    13:00 0°C° 0.2 mm 4 mps 768 mmHg 88%
    14:00 0°C° 0.2 mm 4 mps 767 mmHg 89%
    15:00 0°C° 0.1 mm 4 mps 766 mmHg 89%
    16:00 0°C° 0.1 mm 4 mps 766 mmHg 90%
    17:00 0°C° 0.1 mm 4 mps 765 mmHg 91%
    18:00 +1°C° 0 mm 4 mps 764 mmHg 92%
    19:00 +1°C° 0 mm 4 mps 764 mmHg 93%
    20:00 +1°C° 0 mm 4 mps 763 mmHg 93%
    21:00 +1°C° 0.1 mm 4 mps 762 mmHg 94%
    22:00 +1°C° 0.1 mm 4 mps 762 mmHg 94%
    23:00 +2°C° 0.1 mm 3 mps 761 mmHg 95%

    Tomorrow, 18 November, Sunday

    Time Temperature Precipitation Wind Pressure Humidity
    00:00 +2°C° 0.1 mm 3 mps 760 mmHg 95%
    01:00 +3°C° 0.1 mm 4 mps 760 mmHg 95%
    02:00 +3°C° 0.1 mm 4 mps 759 mmHg 95%
    03:00 +3°C° 0.3 mm 4 mps 759 mmHg 95%
    04:00 +3°C° 0.3 mm 3 mps 758 mmHg 95%
    05:00 +2°C° 0.3 mm 3 mps 758 mmHg 95%
    06:00 +2°C° 0.3 mm 3 mps 758 mmHg 94%
    07:00 +2°C° 0.3 mm 3 mps 758 mmHg 94%
    08:00 +2°C° 0.3 mm 3 mps 758 mmHg 93%
    09:00 +3°C° 0.2 mm 3 mps 758 mmHg 92%
    10:00 +3°C° 0.2 mm 3 mps 758 mmHg 91%
    11:00 +4°C° 0.2 mm 4 mps 758 mmHg 90%
    12:00 +4°C° 0.1 mm 4 mps 758 mmHg 86%
    13:00 +3°C° 0.1 mm 5 mps 759 mmHg 83%
    14:00 +3°C° 0.1 mm 5 mps 759 mmHg 80%
    15:00 +2°C° 0.1 mm 5 mps 759 mmHg 80%
    16:00 +1°C° 0.1 mm 5 mps 760 mmHg 80%
    17:00 +1°C° 0.1 mm 5 mps 760 mmHg 81%
    18:00 0°C° 0 mm 5 mps 760 mmHg 81%
    19:00 0°C° 0 mm 5 mps 760 mmHg 81%
    20:00 0°C° 0 mm 5 mps 761 mmHg 81%
    21:00 0°C° 0 mm 5 mps 761 mmHg 82%
    22:00 0°C° 0 mm 5 mps 761 mmHg 83%
    23:00 -1°C° 0 mm 5 mps 761 mmHg 83%

    Day after tomorrow, 19 November, Monday

    Time Temperature Precipitation Wind Pressure Humidity
    00:00 -1°C° 0 mm 4 mps 762 mmHg 84%
    01:00 -1°C° 0 mm 4 mps 762 mmHg 85%
    02:00 -1°C° 0 mm 4 mps 762 mmHg 86%
    03:00 -1°C° 0 mm 4 mps 762 mmHg 86%
    04:00 -1°C° 0 mm 4 mps 763 mmHg 87%
    05:00 -1°C° 0 mm 4 mps 763 mmHg 87%
    06:00 -1°C° 0 mm 4 mps 763 mmHg 88%
    07:00 -1°C° 0 mm 4 mps 764 mmHg 88%
    08:00 -1°C° 0 mm 4 mps 764 mmHg 88%
    09:00 -1°C° 0 mm 4 mps 764 mmHg 88%
    10:00 0°C° 0 mm 3 mps 765 mmHg 88%
    11:00 0°C° 0 mm 3 mps 765 mmHg 87%
    12:00 0°C° 0 mm 3 mps 765 mmHg 87%
    13:00 0°C° 0 mm 3 mps 766 mmHg 87%
    14:00 0°C° 0 mm 3 mps 766 mmHg 87%
    15:00 0°C° 0 mm 3 mps 766 mmHg 88%
    16:00 -1°C° 0 mm 3 mps 766 mmHg 89%
    17:00 -1°C° 0 mm 3 mps 766 mmHg 89%
    18:00 -1°C° 0 mm 3 mps 766 mmHg 90%
    19:00 -1°C° 0 mm 3 mps 766 mmHg 91%
    20:00 -1°C° 0 mm 2 mps 766 mmHg 91%
    21:00 -2°C° 0 mm 2 mps 766 mmHg 92%
    22:00 -2°C° 0 mm 2 mps 766 mmHg 92%
    23:00 -2°C° 0 mm 2 mps 766 mmHg 93%

    20 November, Tuesday

    Time Temperature Precipitation Wind Pressure Humidity
    00:00 -2°C° 0 mm 2 mps 766 mmHg 93%
    01:00 -2°C° 0 mm 2 mps 766 mmHg 93%
    02:00 -2°C° 0 mm 2 mps 766 mmHg 92%
    03:00 -2°C° 0 mm 2 mps 766 mmHg 93%
    04:00 -2°C° 0 mm 2 mps 765 mmHg 93%
    05:00 0°C° 0 mm 1 mps 765 mmHg 93%
    06:00 0°C° 0 mm 1 mps 765 mmHg 93%
    07:00 0°C° 0 mm 1 mps 765 mmHg 93%
    08:00 0°C° 0 mm 1 mps 765 mmHg 93%
    09:00 0°C° 0 mm 1 mps 765 mmHg 92%
    10:00 +1°C° 0 mm 1 mps 764 mmHg 91%
    11:00 +1°C° 0 mm 1 mps 764 mmHg 90%
    12:00 +1°C° 0 mm 1 mps 764 mmHg 90%
    13:00 +1°C° 0 mm 1 mps 763 mmHg 90%
    14:00 0°C° 0 mm 0 mps 763 mmHg 89%
    15:00 0°C° 0 mm 0 mps 763 mmHg 91%
    16:00 -1°C° 0 mm 0 mps 762 mmHg 92%
    17:00 -1°C° 0 mm 0 mps 762 mmHg 94%
    18:00 -1°C° 0 mm 0 mps 762 mmHg 94%
    19:00 0°C° 0 mm 1 mps 762 mmHg 94%
    20:00 0°C° 0 mm 1 mps 762 mmHg 94%
    21:00 0°C° 0 mm 1 mps 762 mmHg 94%
    22:00 0°C° 0 mm 1 mps 761 mmHg 93%
    23:00 0°C° 0 mm 1 mps 761 mmHg 93%

    21 November, Wednesday

    Time Temperature Precipitation Wind Pressure Humidity
    00:00 0°C° 0 mm 1 mps 761 mmHg 93%
    01:00 0°C° 0 mm 1 mps 761 mmHg 93%
    02:00 0°C° 0 mm 1 mps 761 mmHg 92%
    03:00 -1°C° 0 mm 1 mps 761 mmHg 92%
    04:00 -1°C° 0 mm 1 mps 761 mmHg 92%
    05:00 -1°C° 0 mm 1 mps 761 mmHg 92%
    06:00 -1°C° 0 mm 1 mps 761 mmHg 92%
    07:00 -1°C° 0 mm 1 mps 761 mmHg 92%
    08:00 -4°C° 0 mm 2 mps 761 mmHg 92%
    09:00 -3°C° 0 mm 2 mps 762 mmHg 89%
    10:00 -2°C° 0 mm 2 mps 762 mmHg 86%
    11:00 -2°C° 0 mm 2 mps 762 mmHg 83%
    12:00 -1°C° 0 mm 2 mps 762 mmHg 83%
    13:00 -1°C° 0 mm 2 mps 762 mmHg 83%
    14:00 -1°C° 0 mm 2 mps 762 mmHg 83%
    15:00 -2°C° 0 mm 2 mps 762 mmHg 86%
    16:00 -2°C° 0 mm 2 mps 762 mmHg 89%
    17:00 -3°C° 0 mm 2 mps 763 mmHg 92%
    18:00 -3°C° 0 mm 2 mps 763 mmHg 92%
    19:00 -3°C° 0 mm 2 mps 763 mmHg 92%
    20:00 -3°C° 0 mm 2 mps 763 mmHg 92%
    21:00 -3°C° 0 mm 2 mps 763 mmHg 93%
    22:00 -3°C° 0 mm 2 mps 764 mmHg 93%
    23:00 -2°C° 0 mm 1 mps 764 mmHg 94%

    22 November, Thursday

    Time Temperature Precipitation Wind Pressure Humidity
    00:00 -2°C° 0 mm 1 mps 764 mmHg 94%
    01:00 -2°C° 0 mm 1 mps 764 mmHg 95%
    02:00 -2°C° 0 mm 1 mps 764 mmHg 95%
    03:00 -2°C° 0 mm 1 mps 764 mmHg 96%
    04:00 -2°C° 0 mm 1 mps 764 mmHg 96%
    05:00 -2°C° 0 mm 1 mps 764 mmHg 97%
    06:00 -2°C° 0 mm 1 mps 764 mmHg 96%
    07:00 -2°C° 0 mm 1 mps 764 mmHg 96%
    08:00 -2°C° 0 mm 1 mps 764 mmHg 96%
    09:00 -1°C° 0 mm 1 mps 764 mmHg 93%
    10:00 -1°C° 0 mm 1 mps 764 mmHg 90%
    11:00 0°C° 0 mm 1 mps 764 mmHg 88%
    12:00 0°C° 0 mm 1 mps 764 mmHg 87%
    13:00 0°C° 0 mm 1 mps 764 mmHg 87%
    14:00 0°C° 0 mm 1 mps 764 mmHg 86%
    15:00 0°C° 0 mm 1 mps 764 mmHg 89%
    16:00 -1°C° 0 mm 1 mps 764 mmHg 92%
    17:00 -1°C° 0 mm 1 mps 764 mmHg 94%
    18:00 -2°C° 0 mm 1 mps 764 mmHg 95%
    19:00 -2°C° 0 mm 1 mps 764 mmHg 95%
    20:00 -2°C° 0 mm 1 mps 764 mmHg 95%
    21:00 -2°C° 0 mm 1 mps 764 mmHg 95%
    22:00 -4°C° 0 mm 2 mps 764 mmHg 96%
    23:00 -4°C° 0 mm 2 mps 764 mmHg 96%
    Show more